Location: Terra Rouge Observatory
(46.0000°N, 62.7500°W)
Time: 20:15:32
(UTC-03:00)

Amateur Radio Satellites - All Passes

Search period start: 05 July 2015 19:45
Search period end: 06 July 2015 19:45
Location: Terra Rouge Observatory, 46.0000°N, 62.7500°W

Satellite Date Start Highest point End Downlink Frequencies (MHz)
Time Altitude Azimuth
CUSAT 1 05 Jul 19:45:53 19:48:18 30° 264° (W) 19:50:38 437.405
CUTE 1.7 + AOD 2 05 Jul 19:50:19 19:53:07 18° 64° (ENE) 19:56:03 437.475
DOVE 4 05 Jul 19:52:02 19:55:44 24° 67° (ENE) 19:59:23 437.250
CANX-2 05 Jul 19:53:30 19:56:38 21° 66° (ENE) 19:59:52 2200.000
CUBESAT XI-V 05 Jul 19:57:47 20:02:26 61° 287° (WNW) 20:07:01 437.345
GONETS M04 05 Jul 20:06:49 20:15:19 55° 74° (ENE) 20:23:49
SO-50 05 Jul 20:15:12 20:17:15 12° 340° (NNW) 20:19:13 436.795
CINEMA 3 05 Jul 20:28:40 20:32:10 24° 67° (ENE) 20:35:40 145.822/145.860
CUTE-I 05 Jul 20:32:21 20:33:02 10° 277° (W) 20:33:20 437.470
SEEDS 05 Jul 20:35:17 20:39:12 40° 71° (ENE) 20:43:10 437.485
AAUSAT CUBESAT 2 05 Jul 20:43:22 20:47:05 34° 70° (ENE) 20:50:53 437.432
GOMX 1 05 Jul 20:50:24 20:55:29 66° 258° (WSW) 21:00:14 467.674
DELFI C3 05 Jul 20:51:51 20:54:00 14° 63° (ENE) 20:56:17 145.870
ZACube-1 05 Jul 21:05:46 21:08:30 18° 64° (ENE) 21:11:22 437.345
CUBEBUG 2 05 Jul 21:08:12 21:11:51 29° 68° (ENE) 21:15:29 437.445
COMPASS 1 05 Jul 21:10:08 21:14:17 77° 75° (ENE) 21:18:29 437.405
Oscar 11 05 Jul 21:10:26 21:14:14 32° 69° (ENE) 21:18:07 145.826/435.025
PRISM 05 Jul 21:15:35 21:19:16 29° 293° (WNW) 21:22:53 437.425
HUMSAT D 05 Jul 21:16:38 21:16:49 10° 60° (ENE) 21:17:13 437.325/437.525
Cosmos 2499 05 Jul 21:20:06 21:27:10 37° 69° (ENE) 21:34:48 435.465 / 435.565
BRITE-PL 05 Jul 21:22:42 21:27:04 24° 268° (W) 21:31:08 437.365/2234.400
STRAND 1 05 Jul 21:23:27 21:28:03 33° 294° (WNW) 21:32:35 437.568
CUTE 1.7 + AOD 2 05 Jul 21:24:38 21:28:43 49° 262° (W) 21:32:50 437.475
CANX-2 05 Jul 21:28:21 21:32:20 40° 263° (W) 21:36:20 2200.000
DOVE 4 05 Jul 21:28:45 21:33:21 42° 262° (W) 21:37:40 437.250
HO-68 05 Jul 21:30:58 21:37:55 52° 260° (W) 21:44:52 435.675
FUNcube-1 05 Jul 21:40:04 21:43:55 37° 70° (ENE) 21:47:45 145.935
AUBIESAT-1 05 Jul 21:41:11 21:45:00 32° 102° (ESE) 21:49:05 437.475
UWE-3 05 Jul 21:55:50 22:00:03 72° 75° (ENE) 22:04:13 435.000/436.395/437.385
GONETS M04 05 Jul 22:04:09 22:11:54 36° 275° (W) 22:19:27
CINEMA 3 05 Jul 22:05:07 22:09:16 36° 263° (W) 22:13:15 145.822/145.860
ESTCUBE 1 05 Jul 22:10:36 22:12:54 14° 60° (ENE) 22:15:22 437.505/2401.250
SEEDS 05 Jul 22:12:04 22:15:11 20° 269° (W) 22:18:15 437.485
PCSat 05 Jul 22:13:14 22:14:26 11° 21° (NNE) 22:15:46 145.827
M-CUBED/EXP-1 PRIME 05 Jul 22:16:30 22:20:43 85° 109° (ESE) 22:25:16 437.505
AAUSAT CUBESAT 2 05 Jul 22:19:25 22:22:47 23° 267° (W) 22:26:07 437.432
VELOX 1 05 Jul 22:21:01 22:24:36 25° 66° (ENE) 22:28:17 145.980
50 SAT 05 Jul 22:22:36 22:25:41 24° 68° (ENE) 22:28:50 437.505
DX 1 05 Jul 22:24:33 22:28:43 45° 71° (ENE) 22:32:56 434.975-435.025
DELFI C3 05 Jul 22:24:42 22:28:40 58° 260° (W) 22:32:39 145.870
ZACube-1 05 Jul 22:40:30 22:44:35 48° 261° (W) 22:48:37 437.345
UKube-1 05 Jul 22:43:13 22:47:31 65° 73° (ENE) 22:51:51 .
CUBEBUG 2 05 Jul 22:44:49 22:48:32 28° 265° (W) 22:52:09 437.445
Oscar 11 05 Jul 22:46:48 22:50:28 26° 267° (W) 22:54:05 145.826/435.025
HUMSAT D 05 Jul 22:47:51 22:51:57 89° 95° (E) 22:56:04 437.325/437.525
COMPASS 1 05 Jul 22:49:43 22:50:36 10° 274° (W) 22:51:13 437.405
ANTELSAT 05 Jul 23:07:19 23:11:02 27° 94° (E) 23:14:51 437.575/2403.000
AISAT 05 Jul 23:07:33 23:12:01 72° 74° (ENE) 23:16:29 437.250
NANOSAT C BR1 05 Jul 23:08:46 23:09:35 11° 86° (E) 23:10:39 145.865
Cosmos 2499 05 Jul 23:13:03 23:20:37 53° 268° (W) 23:28:41 435.465 / 435.565
DUCHIFAT 1 05 Jul 23:14:31 23:16:07 12° 87° (E) 23:17:56 145.980
AUBIESAT-1 05 Jul 23:16:00 23:19:41 30° 297° (WNW) 23:23:31 437.475
FUNcube-1 05 Jul 23:17:08 23:20:24 21° 268° (W) 23:23:33 145.935
TIGRISAT 05 Jul 23:18:52 23:22:50 33° 96° (E) 23:26:53 435.000
POLYITAN 1 05 Jul 23:20:44 23:23:10 15° 89° (E) 23:25:45 437.675
TISAT 1 05 Jul 23:20:59 23:22:30 12° 60° (ENE) 23:24:13 437.305
CUBEBUG 1 05 Jul 23:21:07 23:25:25 53° 72° (ENE) 23:29:46 437.445
UWE-3 05 Jul 23:35:46 23:37:09 11° 273° (W) 23:38:18 435.000/436.395/437.385
SO-50 05 Jul 23:39:23 23:42:39 17° 29° (NNE) 23:46:01 436.795
ESTCUBE 1 05 Jul 23:44:40 23:49:13 77° 258° (WSW) 23:53:48 437.505/2401.250
QB50P2 05 Jul 23:49:15 23:52:59 30° 95° (E) 23:56:45 145.880/145.840
POPSAT HIP 1 05 Jul 23:49:38 23:53:19 29° 95° (E) 23:57:02 437.405
M-CUBED/EXP-1 PRIME 05 Jul 23:53:01 23:55:06 13° 303° (WNW) 23:57:04 437.505
PCSat 05 Jul 23:54:44 23:59:39 33° 45° (NE) 00:04:34 145.827
VELOX 1 05 Jul 23:56:49 00:01:00 38° 263° (W) 00:05:10 145.980
50 SAT 05 Jul 23:56:52 00:00:13 28° 265° (W) 00:03:34 437.505
UNISAT 6 05 Jul 23:58:57 00:03:22 89° 93° (E) 00:07:51 437.425
DX 1 06 Jul 00:01:59 00:05:14 19° 268° (W) 00:08:22 434.975-435.025
Cosmos 2491 06 Jul 00:09:31 00:10:13 10° 43° (NE) 00:11:32 435.465 / 435.565
SPROUT 06 Jul 00:17:39 00:21:54 62° 73° (ENE) 00:26:10 437.525
UKube-1 06 Jul 00:21:52 00:24:09 14° 272° (W) 00:26:15 .
BEESAT 06 Jul 00:25:49 00:27:38 12° 58° (ENE) 00:29:40 436.000
QB50P1 06 Jul 00:28:10 00:32:24 78° 104° (ESE) 00:36:36 145.935-145.965
SWISSCUBE 06 Jul 00:40:10 00:43:16 18° 61° (ENE) 00:46:32 437.505
NANOSAT C BR1 06 Jul 00:41:50 00:46:02 77° 285° (WNW) 00:50:13 145.865
ANTELSAT 06 Jul 00:43:55 00:47:52 33° 291° (WNW) 00:51:51 437.575/2403.000
ITUPSAT 1 06 Jul 00:46:07 00:49:17 18° 61° (ENE) 00:52:38 437.325
AISAT 06 Jul 00:47:03 00:49:10 13° 273° (W) 00:51:05 437.250
DUCHIFAT 1 06 Jul 00:48:17 00:52:28 67° 286° (WNW) 00:56:37 145.980
TISAT 1 06 Jul 00:53:28 00:57:43 82° 256° (WSW) 01:01:59 437.305
POLYITAN 1 06 Jul 00:55:19 00:59:27 53° 288° (WNW) 01:03:32 437.675
TIGRISAT 06 Jul 00:55:48 00:59:30 27° 293° (WNW) 01:03:12 435.000
BUGSAT 1 06 Jul 00:58:46 01:02:50 76° 286° (WNW) 01:06:51 437.445
CUBEBUG 1 06 Jul 00:59:10 01:02:09 17° 270° (W) 01:04:59 437.445
RS-15 06 Jul 01:05:14 01:12:38 23° 102° (ESE) 01:20:43 29.354- 29.394
SO-50 06 Jul 01:19:11 01:24:10 68° 51° (NE) 01:29:02 436.795
QB50P2 06 Jul 01:25:13 01:28:50 27° 293° (WNW) 01:32:21 145.880/145.840
POPSAT HIP 1 06 Jul 01:25:33 01:29:09 27° 293° (WNW) 01:32:42 437.405
UNISAT 6 06 Jul 01:37:57 01:39:35 12° 300° (WNW) 01:41:00 437.425
PCSat 06 Jul 01:38:03 01:43:15 46° 245° (WSW) 01:48:23 145.827
SPROUT 06 Jul 01:56:06 01:58:27 14° 272° (W) 02:00:37 437.525
BEESAT 06 Jul 02:00:00 02:04:47 84° 76° (ENE) 02:09:37 436.000
Cosmos 2491 06 Jul 02:01:54 02:10:12 46° 70° (ENE) 02:18:32 435.465 / 435.565
STARS 06 Jul 02:04:31 02:06:05 12° 59° (ENE) 02:07:51 437.465
QB50P1 06 Jul 02:05:55 02:07:44 12° 299° (WNW) 02:09:21 145.935-145.965
SWISSCUBE 06 Jul 02:15:55 02:20:41 65° 259° (W) 02:25:29 437.505
Oscar 19 06 Jul 02:19:17 02:24:09 43° 98° (E) 02:29:02 437.125/150
ITUPSAT 1 06 Jul 02:22:01 02:26:45 63° 259° (W) 02:31:34 437.325
ITAMSAT 1 06 Jul 02:35:12 02:38:37 18° 89° (E) 02:42:11 435.822/435.867
Gurwin Techsat 1B 06 Jul 02:37:46 02:41:36 20° 90° (E) 02:45:35 435.225
YUBILEINY 06 Jul 02:39:37 02:46:37 30° 83° (E) 02:53:52 435.215
AIST 1 06 Jul 02:48:44 02:53:02 55° 77° (ENE) 02:57:16
KKS-1 06 Jul 02:49:35 02:53:52 49° 71° (ENE) 02:58:11 437.445
JAS-2 06 Jul 02:50:05 02:51:23 11° 82° (E) 02:53:16 435.910
SO-50 06 Jul 03:00:44 03:04:16 19° 248° (WSW) 03:07:36 436.795
RS-15 06 Jul 03:12:33 03:23:28 84° 123° (ESE) 03:34:49 29.354- 29.394
MOZHAYETS 4 06 Jul 03:20:44 03:22:49 13° 60° (ENE) 03:25:04
STARS 06 Jul 03:37:31 03:41:56 87° 256° (WSW) 03:46:21 437.465
BEESAT 06 Jul 03:41:24 03:43:22 12° 274° (W) 03:45:05 436.000
Cosmos 2491 06 Jul 03:58:58 04:07:07 44° 272° (W) 04:15:08 435.465 / 435.565
Oscar 19 06 Jul 03:59:01 04:03:21 28° 296° (WNW) 04:07:37 437.125/150
ITAMSAT 1 06 Jul 04:13:28 04:18:40 66° 288° (WNW) 04:23:49 435.822/435.867
Gurwin Techsat 1B 06 Jul 04:16:48 04:22:02 59° 289° (WNW) 04:27:15 435.225
KKS-1 06 Jul 04:27:37 04:30:48 19° 269° (W) 04:33:52 437.445
AIST 1 06 Jul 04:27:44 04:30:15 15° 275° (W) 04:32:35
JAS-2 06 Jul 04:31:09 04:37:43 62° 101° (E) 04:45:04 435.910
YUBILEINY 06 Jul 04:34:14 04:42:52 67° 283° (WNW) 04:51:33 435.215
AO-7 06 Jul 04:45:27 04:53:21 44° 98° (E) 05:01:15 29.400- 29.500
MOZHAYETS 4 06 Jul 04:54:50 04:59:25 84° 257° (WSW) 05:04:04
Cosmos 2504 06 Jul 05:09:26 05:14:44 25° 84° (E) 05:20:16 435.465 / 435.565
HORYU 2 06 Jul 05:15:51 05:20:20 89° 101° (ESE) 05:24:50 437.375
RS-15 06 Jul 05:26:58 05:37:15 41° 332° (NNW) 05:47:51 29.354- 29.394
CUBESAT XI-V 06 Jul 05:27:17 05:30:51 22° 64° (ENE) 05:34:32 437.345
STRAND 1 06 Jul 05:27:55 05:29:03 11° 54° (NE) 05:30:28 437.568
ITAMSAT 1 06 Jul 05:55:47 05:57:17 11° 306° (NW) 05:58:32 435.822/435.867
Gurwin Techsat 1B 06 Jul 06:00:39 06:01:03 10° 307° (NW) 06:01:10 435.225
JAS-2 06 Jul 06:16:56 06:22:31 30° 297° (WNW) 06:28:31 435.910
PRISM 06 Jul 06:32:35 06:36:12 29° 67° (ENE) 06:39:53 437.425
BEESAT 3 06 Jul 06:35:25 06:38:02 17° 113° (ESE) 06:40:46 437.485
YUBILEINY 06 Jul 06:36:47 06:41:54 16° 309° (NW) 06:46:35 435.215
AO-7 06 Jul 06:38:19 06:46:18 49° 299° (WNW) 06:54:09 29.400- 29.500
DANDE 06 Jul 06:49:43 06:50:14 10° 88° (E) 06:51:11 436.750
BEESAT 2 06 Jul 06:49:50 06:52:42 19° 113° (ESE) 06:55:41 435.950
HORYU 2 06 Jul 06:54:34 06:56:22 12° 301° (WNW) 06:57:58 437.375
Cosmos 2504 06 Jul 06:59:37 07:06:26 60° 283° (WNW) 07:13:21 435.465 / 435.565
CUTE-I 06 Jul 07:01:18 07:06:14 36° 96° (E) 07:11:10 437.470
STRAND 1 06 Jul 07:02:18 07:07:24 66° 72° (ENE) 07:12:32 437.568
CUBESAT XI-V 06 Jul 07:03:27 07:08:01 48° 262° (W) 07:12:36 437.345
O/OREOS (USA 219) 06 Jul 07:04:36 07:08:17 26° 105° (ESE) 07:12:02 437.305
CUSAT 1 06 Jul 07:12:17 07:16:27 21° 94° (E) 07:20:06 437.405
VERMONT LUNAR 06 Jul 07:21:33 07:23:07 13° 157° (SSE) 07:24:44 437.305
GONETS M04 06 Jul 07:22:17 07:23:59 11° 71° (ENE) 07:26:21
M-CUBED/EXP-1 PRIME 06 Jul 07:34:48 07:36:44 15° 57° (ENE) 07:38:50 437.505
Cubesat XI-IV 06 Jul 07:35:49 07:41:12 72° 102° (ESE) 07:46:34 437.490
RS-15 06 Jul 07:44:01 07:53:37 30° 5° (N) 08:03:36 29.354- 29.394
PRISM 06 Jul 08:08:00 08:11:37 28° 265° (W) 08:15:14 437.425
BEESAT 3 06 Jul 08:11:35 08:15:37 56° 310° (NW) 08:19:41 437.485
AIST 2 06 Jul 08:19:05 08:23:02 39° 119° (ESE) 08:27:02 435.215
DANDE 06 Jul 08:26:16 08:33:08 69° 99° (E) 08:38:19 436.750
BEESAT 2 06 Jul 08:26:25 08:30:27 51° 311° (NW) 08:34:30 435.950
AUBIESAT-1 06 Jul 08:31:46 08:35:03 55° 68° (ENE) 08:38:32 437.475
AO-7 06 Jul 08:33:09 08:37:14 14° 321° (NW) 08:40:59 29.400- 29.500
ISS 06 Jul 08:40:23 08:43:36 64° 148° (SSE) 08:46:49 145.825
CUTE-I 06 Jul 08:41:28 08:46:17 34° 294° (WNW) 08:51:03 437.470
O/OREOS (USA 219) 06 Jul 08:43:26 08:47:35 36° 303° (WNW) 08:51:43 437.305
STRAND 1 06 Jul 08:43:39 08:47:09 18° 271° (W) 08:50:28 437.568
GOMX 1 06 Jul 08:50:23 08:53:57 26° 94° (E) 08:57:30 467.674
CUSAT 1 06 Jul 08:53:04 08:59:00 54° 283° (WNW) 09:03:28 437.405
COMPASS 1 06 Jul 08:53:36 08:54:26 11° 86° (E) 08:55:32 437.405
HO-68 06 Jul 08:56:04 09:01:59 28° 92° (E) 09:08:02 435.675
VERMONT LUNAR 06 Jul 08:56:45 08:59:28 27° 173° (S) 09:02:11 437.305
Cosmos 2504 06 Jul 08:58:25 09:00:34 11° 309° (NW) 09:02:18 435.465 / 435.565
CUTE 1.7 + AOD 2 06 Jul 09:07:36 09:11:03 24° 93° (E) 09:14:34 437.475
M-CUBED/EXP-1 PRIME 06 Jul 09:08:06 09:11:16 41° 256° (WSW) 09:14:36 437.505
GONETS M04 06 Jul 09:10:35 09:19:04 58° 92° (E) 09:27:36
CANX-2 06 Jul 09:11:05 09:14:47 28° 94° (E) 09:18:32 2200.000
Cubesat XI-IV 06 Jul 09:17:02 09:20:48 19° 301° (WNW) 09:24:23 437.490
BRITE-PL 06 Jul 09:24:11 09:28:31 79° 286° (WNW) 09:32:40 437.365/2234.400
DOVE 4 06 Jul 09:25:09 09:29:03 38° 97° (E) 09:32:58 437.250
UNISAT 6 06 Jul 09:26:41 09:28:25 13° 61° (ENE) 09:30:20 437.425
PHONESAT 2.4 06 Jul 09:41:11 09:43:57 23° 164° (SSE) 09:46:44 2401.200-2431.200
UWE-3 06 Jul 09:45:01 09:46:25 12° 87° (E) 09:48:04 435.000/436.395/437.385
SEEDS 06 Jul 09:52:23 09:56:35 57° 100° (E) 10:00:48 437.485
BEESAT 3 06 Jul 09:52:42 09:54:29 12° 331° (NNW) 09:56:10 437.485
CINEMA 3 06 Jul 09:56:56 10:00:50 39° 97° (E) 10:04:51 145.822/145.860
AIST 2 06 Jul 09:57:55 10:01:42 29° 318° (NW) 10:05:28 435.215
RS-15 06 Jul 09:58:22 10:09:31 51° 37° (NE) 10:21:11 29.354- 29.394
AAUSAT CUBESAT 2 06 Jul 09:58:46 10:02:50 45° 98° (E) 10:06:54 437.432
Cosmos 2499 06 Jul 10:02:09 10:07:18 23° 82° (E) 10:12:46 435.465 / 435.565
DELFI C3 06 Jul 10:02:17 10:04:46 16° 90° (E) 10:07:24 145.870
NANOSAT C BR1 06 Jul 10:03:33 10:05:20 13° 61° (ENE) 10:07:18 145.865
BEESAT 2 06 Jul 10:07:54 10:09:29 12° 332° (NNW) 10:10:59 435.950
ANTELSAT 06 Jul 10:08:56 10:12:41 31° 68° (ENE) 10:16:29 437.575/2403.000
DUCHIFAT 1 06 Jul 10:09:22 10:11:33 14° 62° (ENE) 10:13:53 145.980
DANDE 06 Jul 10:11:48 10:16:30 20° 292° (WNW) 10:20:15 436.750
POLYITAN 1 06 Jul 10:16:19 10:19:04 17° 63° (ENE) 10:21:55 437.675
ISS 06 Jul 10:17:07 10:20:09 35° 347° (NNW) 10:23:11 145.825
BUGSAT 1 06 Jul 10:18:28 10:20:00 12° 61° (ENE) 10:21:44 437.445
TIGRISAT 06 Jul 10:20:10 10:24:08 39° 70° (ENE) 10:28:07 435.000
COMPASS 1 06 Jul 10:26:29 10:30:44 78° 285° (WNW) 10:34:58 437.405
ZACube-1 06 Jul 10:26:35 10:30:05 25° 94° (E) 10:33:41 437.345
GOMX 1 06 Jul 10:28:28 10:32:07 28° 292° (WNW) 10:35:40 467.674
Oscar 11 06 Jul 10:30:45 10:34:57 46° 98° (E) 10:39:08 145.826/435.025
HUMSAT D 06 Jul 10:31:05 10:32:42 12° 88° (E) 10:34:32 437.325/437.525
CUBEBUG 2 06 Jul 10:32:22 10:36:26 45° 99° (E) 10:40:35 437.445
VERMONT LUNAR 06 Jul 10:33:17 10:35:56 25° 190° (S) 10:38:36 437.305
CUTE 1.7 + AOD 2 06 Jul 10:43:08 10:47:04 35° 290° (WNW) 10:50:58 437.475
HO-68 06 Jul 10:43:12 10:50:16 64° 292° (WNW) 10:57:18 435.675
QB50P2 06 Jul 10:44:30 10:48:16 32° 69° (ENE) 10:52:05 145.880/145.840
POPSAT HIP 1 06 Jul 10:44:46 10:48:29 31° 69° (ENE) 10:52:16 437.405
CANX-2 06 Jul 10:46:56 10:50:43 30° 292° (WNW) 10:54:26 2200.000
AISAT 06 Jul 10:58:10 10:59:22 11° 86° (E) 11:00:49 437.250
UNISAT 6 06 Jul 11:00:24 11:04:41 77° 257° (WSW) 11:08:58 437.425
FUNcube-1 06 Jul 11:01:26 11:05:36 56° 100° (E) 11:09:50 145.935
DOVE 4 06 Jul 11:03:30 11:06:39 21° 294° (WNW) 11:09:42 437.250
GONETS M04 06 Jul 11:08:28 11:16:26 36° 294° (WNW) 11:24:15
PHONESAT 2.4 06 Jul 11:18:23 11:21:30 32° 181° (S) 11:24:39 2401.200-2431.200
UWE-3 06 Jul 11:19:18 11:23:30 71° 286° (WNW) 11:27:48 435.000/436.395/437.385
QB50P1 06 Jul 11:22:58 11:27:12 80° 77° (ENE) 11:31:28 145.935-145.965
SEEDS 06 Jul 11:29:16 11:31:59 16° 297° (WNW) 11:34:35 437.485
50 SAT 06 Jul 11:29:44 11:33:00 25° 94° (E) 11:36:20 437.505
CINEMA 3 06 Jul 11:34:41 11:37:53 21° 294° (WNW) 11:41:01 145.822/145.860
AAUSAT CUBESAT 2 06 Jul 11:35:06 11:38:09 19° 295° (WNW) 11:41:06 437.432
ESTCUBE 1 06 Jul 11:35:46 11:38:57 19° 90° (E) 11:42:15 437.505/2401.250
DELFI C3 06 Jul 11:36:13 11:40:10 48° 288° (WNW) 11:44:06 145.870
NANOSAT C BR1 06 Jul 11:36:25 11:40:39 75° 257° (WSW) 11:44:53 145.865
DUCHIFAT 1 06 Jul 11:42:41 11:46:54 66° 258° (WSW) 11:51:06 145.980
VELOX 1 06 Jul 11:44:40 11:48:38 32° 96° (E) 11:52:37 145.980
ANTELSAT 06 Jul 11:45:53 11:49:31 26° 266° (W) 11:53:07 437.575/2403.000
DX 1 06 Jul 11:46:18 11:50:37 60° 101° (E) 11:54:54 434.975-435.025
POLYITAN 1 06 Jul 11:50:29 11:54:37 51° 260° (W) 11:58:46 437.675
BUGSAT 1 06 Jul 11:50:43 11:54:57 80° 257° (WSW) 11:59:09 437.445
Cosmos 2499 06 Jul 11:52:48 11:59:48 67° 282° (WNW) 12:07:01 435.465 / 435.565
ISS 06 Jul 11:54:08 11:57:04 30° 7° (N) 12:00:01 145.825
TIGRISAT 06 Jul 11:57:46 12:01:04 21° 268° (W) 12:04:16 435.000
ZACube-1 06 Jul 12:02:42 12:06:30 33° 291° (WNW) 12:10:20 437.345
Oscar 19 06 Jul 12:02:56 12:05:01 13° 57° (ENE) 12:07:20 437.125/150
UKube-1 06 Jul 12:04:09 12:08:30 84° 101° (E) 12:12:49 .
HUMSAT D 06 Jul 12:04:48 12:08:57 67° 286° (WNW) 12:13:07 437.325/437.525
Oscar 11 06 Jul 12:07:37 12:10:51 20° 295° (WNW) 12:13:58 145.826/435.025
CUBEBUG 2 06 Jul 12:09:50 12:12:53 19° 295° (WNW) 12:15:51 437.445
RS-15 06 Jul 12:11:06 12:22:36 65° 242° (WSW) 12:34:29 29.354- 29.394
VERMONT LUNAR 06 Jul 12:11:18 12:12:15 11° 205° (SSW) 12:13:08 437.305
QB50P2 06 Jul 12:20:38 12:24:13 25° 266° (W) 12:27:43 145.880/145.840
POPSAT HIP 1 06 Jul 12:20:48 12:24:24 26° 266° (W) 12:27:57 437.405
AISAT 06 Jul 12:32:11 12:36:37 79° 285° (WNW) 12:41:00 437.250
HO-68 06 Jul 12:32:49 12:36:47 15° 312° (NW) 12:40:28 435.675
TISAT 1 06 Jul 12:37:09 12:39:02 13° 88° (E) 12:41:07 437.305
FUNcube-1 06 Jul 12:38:54 12:41:34 16° 296° (WNW) 12:44:07 145.935
CUBEBUG 1 06 Jul 12:43:36 12:47:59 77° 102° (ESE) 12:52:19 437.445
YUBILEINY 06 Jul 12:45:48 12:51:02 17° 53° (NE) 12:56:41 435.215
PHONESAT 2.4 06 Jul 12:56:22 12:59:03 21° 197° (SSW) 13:01:43 2401.200-2431.200
QB50P1 06 Jul 13:02:52 13:03:43 10° 274° (W) 13:04:19 145.935-145.965
50 SAT 06 Jul 13:04:14 13:07:37 28° 291° (WNW) 13:10:58 437.505
ESTCUBE 1 06 Jul 13:11:44 13:16:08 49° 289° (WNW) 13:20:30 437.505/2401.250
VELOX 1 06 Jul 13:21:20 13:25:06 28° 294° (WNW) 13:28:49 145.980
DX 1 06 Jul 13:23:41 13:26:27 16° 298° (WNW) 13:29:04 434.975-435.025
ISS 06 Jul 13:30:32 13:33:47 80° 26° (NNE) 13:37:02 145.825
SPROUT 06 Jul 13:37:41 13:42:00 87° 103° (ESE) 13:46:16 437.525
Oscar 19 06 Jul 13:38:30 13:43:38 79° 74° (ENE) 13:48:48 437.125/150
UKube-1 06 Jul 13:42:16 13:44:03 12° 301° (WNW) 13:45:39 .
Cosmos 2499 06 Jul 13:51:31 13:54:49 13° 308° (NW) 13:57:46 435.465 / 435.565
ITAMSAT 1 06 Jul 13:55:08 13:59:49 35° 66° (ENE) 14:04:36 435.822/435.867
AO-7 06 Jul 13:58:02 14:03:31 21° 46° (NE) 14:09:19 29.400- 29.500
BEESAT 06 Jul 13:58:46 14:01:58 18° 90° (E) 14:05:18 436.000
Gurwin Techsat 1B 06 Jul 14:00:57 14:05:52 41° 68° (ENE) 14:10:52 435.225
TISAT 1 06 Jul 14:11:08 14:15:17 62° 287° (WNW) 14:19:24 437.305
AISAT 06 Jul 14:11:47 14:12:29 10° 302° (WNW) 14:12:58 437.250
SWISSCUBE 06 Jul 14:14:07 14:18:10 27° 94° (E) 14:22:16 437.505
ITUPSAT 1 06 Jul 14:20:25 14:24:32 28° 94° (E) 14:28:42 437.325
CUBEBUG 1 06 Jul 14:21:40 14:23:48 13° 300° (WNW) 14:25:45 437.445
RS-15 06 Jul 14:26:33 14:33:06 16° 262° (W) 14:38:48 29.354- 29.394
YUBILEINY 06 Jul 14:41:06 14:49:52 72° 78° (ENE) 14:58:40 435.215
PCSat 06 Jul 14:41:13 14:44:12 16° 106° (ESE) 14:47:25 145.827
HORYU 2 06 Jul 14:42:24 14:44:39 14° 60° (ENE) 14:47:03 437.375
JAS-2 06 Jul 14:47:49 14:52:15 30° 63° (ENE) 14:57:03 435.910
BEESAT 3 06 Jul 14:50:21 14:53:50 26° 42° (NE) 14:57:18 437.485
AIST 2 06 Jul 15:01:05 15:02:58 13° 28° (NNE) 15:04:55 435.215
BEESAT 2 06 Jul 15:05:32 15:09:09 29° 43° (NE) 15:12:44 435.950
Cosmos 2491 06 Jul 15:06:03 15:14:18 48° 89° (E) 15:22:39 435.465 / 435.565
ISS 06 Jul 15:07:37 15:09:51 17° 224° (SW) 15:12:01 145.825
SPROUT 06 Jul 15:16:02 15:17:28 11° 300° (WNW) 15:18:43 437.525
Oscar 19 06 Jul 15:20:54 15:23:43 14° 273° (W) 15:26:17 437.125/150
AIST 1 06 Jul 15:20:57 15:24:43 29° 90° (E) 15:28:34
STARS 06 Jul 15:26:12 15:28:29 14° 89° (E) 15:30:57 437.465
O/OREOS (USA 219) 06 Jul 15:33:33 15:35:25 13° 43° (NE) 15:37:29 437.305
ITAMSAT 1 06 Jul 15:34:37 15:39:21 34° 264° (W) 15:44:05 435.822/435.867
BEESAT 06 Jul 15:35:30 15:40:14 57° 289° (WNW) 15:44:55 436.000
SO-50 06 Jul 15:39:06 15:40:38 12° 108° (ESE) 15:42:26 436.795
Gurwin Techsat 1B 06 Jul 15:41:20 15:46:00 30° 266° (W) 15:50:37 435.225
AO-7 06 Jul 15:46:47 15:55:04 72° 67° (ENE) 16:03:26 29.400- 29.500
SWISSCUBE 06 Jul 15:51:40 15:56:08 38° 292° (WNW) 16:00:32 437.505
ITUPSAT 1 06 Jul 15:58:04 16:02:32 37° 292° (WNW) 16:06:54 437.325
KKS-1 06 Jul 16:14:27 16:18:54 71° 103° (ESE) 16:23:18 437.445
HORYU 2 06 Jul 16:16:22 16:20:46 73° 257° (WSW) 16:25:12 437.375
PCSat 06 Jul 16:21:34 16:27:00 84° 305° (NW) 16:32:28 145.827
BEESAT 3 06 Jul 16:28:04 16:31:54 40° 241° (WSW) 16:35:40 437.485
JAS-2 06 Jul 16:32:27 16:37:19 39° 264° (W) 16:42:26 435.910
AIST 2 06 Jul 16:38:18 16:42:29 56° 50° (NE) 16:46:34 435.215
YUBILEINY 06 Jul 16:38:56 16:46:01 27° 278° (W) 16:52:50 435.215
Cosmos 2504 06 Jul 16:41:24 16:48:37 50° 74° (ENE) 16:56:24 435.465 / 435.565
BEESAT 2 06 Jul 16:43:29 16:47:16 36° 242° (WSW) 16:50:58 435.950
MOZHAYETS 4 06 Jul 16:48:14 16:51:35 20° 90° (E) 16:55:04
CUTE-I 06 Jul 16:49:19 16:51:34 13° 55° (NE) 16:54:04 437.470
AIST 1 06 Jul 16:58:30 17:02:22 28° 289° (WNW) 17:06:11
STARS 06 Jul 17:01:04 17:05:25 62° 287° (WNW) 17:09:43 437.465
Cosmos 2491 06 Jul 17:03:00 17:11:21 43° 291° (WNW) 17:19:36 435.465 / 435.565
O/OREOS (USA 219) 06 Jul 17:11:09 17:15:42 79° 65° (ENE) 17:20:15 437.305
SO-50 06 Jul 17:15:41 17:20:27 83° 123° (ESE) 17:25:23 436.795
Cubesat XI-IV 06 Jul 17:21:57 17:26:05 24° 62° (ENE) 17:30:21 437.490
AO-7 06 Jul 17:41:38 17:48:40 28° 268° (W) 17:55:32 29.400- 29.500
KKS-1 06 Jul 17:52:33 17:55:02 15° 299° (WNW) 17:57:21 437.445
PCSat 06 Jul 18:07:18 18:11:16 20° 325° (NW) 18:15:09 145.827
AIST 2 06 Jul 18:17:49 18:20:40 17° 247° (WSW) 18:23:23 435.215
MOZHAYETS 4 06 Jul 18:24:37 18:29:08 49° 288° (WNW) 18:33:36
CUTE-I 06 Jul 18:25:29 18:30:50 75° 74° (ENE) 18:36:15 437.470
Cosmos 2504 06 Jul 18:33:56 18:40:42 37° 272° (W) 18:47:46 435.465 / 435.565
O/OREOS (USA 219) 06 Jul 18:52:45 18:54:33 12° 261° (W) 18:56:07 437.305
CUBESAT XI-V 06 Jul 18:57:40 19:01:59 36° 96° (E) 19:06:16 437.345
SO-50 06 Jul 18:57:51 19:01:37 22° 326° (NNW) 19:05:25 436.795
BRITE-PL 06 Jul 18:59:43 19:03:37 22° 65° (ENE) 19:07:27 437.365/2234.400
Cubesat XI-IV 06 Jul 19:00:35 19:05:51 56° 259° (W) 19:11:10 437.490
DANDE 06 Jul 19:06:07 19:08:47 37° 74° (ENE) 19:11:14 436.750
STRAND 1 06 Jul 19:11:21 19:14:48 18° 89° (E) 19:18:23 437.568
GONETS M04 06 Jul 19:17:48 19:25:22 33° 65° (ENE) 19:33:04
HO-68 06 Jul 19:27:47 19:33:38 29° 58° (ENE) 19:39:37 435.675
CUSAT 1 06 Jul 19:28:14 19:30:46 43° 262° (W) 19:33:17 437.405
